Dover AFB, DE

10:36 PM EDT on August 17, 2019 (GMT -0400)
Dover Air Force Base

Weather History for KDOV - July, 2019

Change the Weather History Date:

Tuesday, July 16, 2019

  Actual Average Record
Temperature  
Mean Temperature 79 °F -  
Max Temperature 89 °F 88 °F 101 °F (1988)
Min Temperature 69 °F 68 °F 59 °F (1971)
Cooling Degree Days 14    
Growing Degree Days 29 (Base 50)    
Moisture  
Dew Point 72 °F    
Average Humidity 72    
Maximum Humidity 95    
Minimum Humidity 56    
Precipitation  
Precipitation 0.00 in - - ()
Sea Level Pressure  
Sea Level Pressure 30.07 in    
Wind  
Wind Speed 6 mph (SSE)    
Max Wind Speed 9 mph    
Max Gust Speed -    
Visibility 10 miles    
Events Rain    
Averages and records for this station are not official NWS values.
T = Trace of Precipitation, MM = Missing Value Source: NWS Daily Summary

Daily Weather History Graph

Daily Weather History Graph

Search for Another Location

Airport or City:

Astronomy

Jul. 16, 2019 Rise Set
Actual Time 5:48 AM EDT 8:26 PM EDT
Civil Twilight 5:17 AM EDT 8:57 PM EDT
Nautical Twilight 4:38 AM EDT 9:36 PM EDT
Astronomical Twilight 3:54 AM EDT 10:20 PM EDT
Moon 8:31 PM EDT (7/16) 5:24 AM EDT (7/16)
Length of Visible Light 15h 40m
Length of Day
14h 37m
Full, 100% of the Moon is Illuminated
Jul 16
Full
Jul 16
Full
Jul 24
Last Quarter
Jul 31
New
Aug 7
First Quarter

Hourly Weather History & Observations

Time (EDT) Temp. Heat Index Dew Point Humidity Pressure Visibility Wind Dir Wind Speed Gust Speed Precip Events Conditions
12:56 AM 72.5 °F - 66.9 °F 83% 30.08 in 10.0 mi South 4.6 mph - N/A   Clear
1:56 AM 71.4 °F - 67.3 °F 87% 30.08 in 10.0 mi South 5.8 mph - N/A   Clear
2:56 AM 71.2 °F - 67.8 °F 89% 30.08 in 10.0 mi SSW 4.6 mph - N/A   Clear
3:56 AM 71.6 °F - 67.8 °F 88% 30.07 in 10.0 mi South 5.8 mph - N/A   Clear
4:56 AM 70.3 °F - 67.8 °F 92% 30.07 in 10.0 mi South 3.5 mph - N/A   Clear
5:56 AM 69.3 °F - 67.6 °F 95% 30.08 in 10.0 mi South 4.6 mph - N/A   Clear
6:56 AM 72.3 °F - 70.7 °F 95% 30.10 in 10.0 mi South 5.8 mph - N/A   Clear
7:56 AM 77.0 °F - 71.4 °F 83% 30.11 in 10.0 mi South 5.8 mph - N/A   Clear
8:56 AM 82.2 °F 85.1 °F 67.8 °F 62% 30.11 in 10.0 mi SSW 5.8 mph - N/A   Clear
9:56 AM 85.5 °F 89.1 °F 68.9 °F 57% 30.10 in 10.0 mi South 6.9 mph - N/A   Clear
10:56 AM 86.7 °F 91.0 °F 69.1 °F 56% 30.10 in 10.0 mi South 8.1 mph - N/A   Clear
11:56 AM 87.6 °F 96.2 °F 74.3 °F 64% 30.10 in 10.0 mi East 8.1 mph - N/A   Mostly Cloudy
12:13 PM 87.8 °F 95.6 °F 73.4 °F 62% 30.10 in 10.0 mi East 6.9 mph - N/A Rain Light Rain
12:14 PM 87.8 °F 95.6 °F 73.4 °F 62% 30.10 in 10.0 mi East 6.9 mph - N/A   Mostly Cloudy
12:56 PM 87.1 °F 93.6 °F 72.3 °F 61% 30.09 in 10.0 mi ESE 9.2 mph - 0.00 in   Clear
1:56 PM 87.6 °F 94.3 °F 72.0 °F 60% 30.07 in 10.0 mi ESE 9.2 mph - N/A   Partly Cloudy
2:56 PM 89.2 °F 96.9 °F 72.9 °F 58% 30.05 in 10.0 mi ESE 6.9 mph - N/A   Partly Cloudy
3:56 PM 88.3 °F 95.9 °F 73.0 °F 60% 30.03 in 10.0 mi East 9.2 mph - N/A   Partly Cloudy
4:56 PM 88.3 °F 97.4 °F 74.1 °F 63% 30.03 in 10.0 mi East 9.2 mph - N/A   Clear
5:56 PM 88.2 °F 98.0 °F 74.8 °F 65% 30.02 in 10.0 mi ESE 8.1 mph - N/A   Partly Cloudy
6:56 PM 87.1 °F 98.3 °F 76.8 °F 71% 30.03 in 10.0 mi ESE 5.8 mph - N/A   Partly Cloudy
7:56 PM 83.5 °F 93.3 °F 77.4 °F 82% 30.03 in 10.0 mi SE 3.5 mph - N/A   Partly Cloudy
8:56 PM 84.2 °F 91.6 °F 74.1 °F 72% 30.03 in 10.0 mi Calm Calm - N/A   Partly Cloudy
9:56 PM 82.9 °F 88.3 °F 72.1 °F 70% 30.04 in 10.0 mi South 5.8 mph - N/A   Scattered Clouds
10:56 PM 82.8 °F 89.0 °F 73.6 °F 74% 30.04 in 10.0 mi South 8.1 mph - N/A   Overcast
11:56 PM 81.9 °F 87.0 °F 73.0 °F 74% 30.04 in 10.0 mi SSW 9.2 mph - N/A   Overcast